Theta_e
310 308 307 306 306 308 309 309 309 310 308 305 304 305 306 307 306 305 305 304 304 304 303 304 304 303 302 302 301 302 302 303 302 302 302 301 300 299 298 297 296 296 295 295 295 293 291 289 289 289 289 289 289 289 289 289 289 289 289 289 289 289 289 289 289 289 289 289 288 288 288 288 288 287 287 286 286 285 285 285 285 285 285 285 285 285 285
309 305 305 305 305 305 306 305 305 305 305 303 303 304 303 303 303 303 303 303 302 302 301 302 301 300 300 301 301 302 301 301 301 301 301 301 299 298 298 297 296 296 296 295 293 291 290 290 290 290 290 290 290 290 290 290 290 289 289 289 289 289 289 289 289 289 289 289 288 288 288 288 287 286 286 285 285 285 285 285 285 285 285 285 285 285 285
308 303 302 304 304 303 303 303 302 301 301 301 302 302 301 302 302 301 301 301 301 301 300 299 300 300 300 300 300 300 300 300 300 300 299 299 299 298 297 297 296 296 296 294 292 291 291 291 291 291 291 291 291 290 290 290 289 289 289 289 289 289 289 289 289 289 288 288 288 288 288 287 286 285 284 284 284 284 284 284 284 284 284 285 285 285 285
307 300 299 302 302 302 301 301 300 299 299 300 300 300 300 301 300 300 300 300 300 300 298 298 298 298 297 298 299 299 299 299 298 298 298 298 298 297 297 296 296 295 294 293 293 292 292 292 292 291 291 291 291 290 290 290 290 290 289 289 289 289 289 288 288 288 288 288 288 287 287 286 284 284 284 283 283 283 283 283 284 284 284 284 284 284 284
304 298 299 302 302 302 301 300 300 299 298 298 298 298 299 299 299 299 299 299 299 299 299 299 299 297 295 295 296 297 297 298 297 297 297 297 296 296 295 295 294 294 293 293 293 292 292 292 291 291 291 291 290 290 290 290 290 289 289 289 289 289 289 288 288 287 287 287 286 286 285 284 283 283 283 283 283 283 283 283 284 284 284 284 284 284 283
303 298 299 301 300 301 300 299 300 300 298 298 298 297 298 298 299 300 299 299 300 300 300 301 300 298 295 294 294 294 295 296 296 295 295 295 294 293 293 293 292 292 292 292 292 291 291 291 291 290 291 291 290 290 290 290 290 289 289 289 289 288 288 287 287 286 286 286 285 284 283 283 283 283 283 283 283 283 283 283 283 284 284 284 283 283 282
302 297 298 301 300 300 299 299 300 300 298 299 298 298 298 298 298 299 299 299 299 298 298 299 298 296 294 292 292 293 293 294 293 293 293 293 292 292 292 291 291 291 291 291 290 290 290 290 290 290 290 290 290 290 290 289 289 289 289 289 288 287 287 286 286 285 285 284 283 283 283 282 282 282 282 282 283 283 283 283 283 283 283 283 282 282 281
300 298 299 301 300 298 298 298 297 296 296 297 297 297 298 298 298 298 298 299 297 295 295 295 293 292 292 291 291 292 292 292 292 292 292 292 292 292 291 291 291 291 291 290 290 290 290 290 290 289 289 289 289 290 290 289 289 289 288 288 287 287 286 286 285 284 283 283 283 282 282 282 282 282 282 282 282 282 282 282 282 282 282 282 281 281 280
300 299 299 299 298 298 298 297 296 295 296 298 299 298 298 298 296 295 297 300 296 291 291 292 291 291 291 291 292 292 292 292 292 292 292 292 292 292 291 291 291 291 291 290 290 290 290 290 289 289 289 289 289 289 289 289 289 288 288 287 287 286 286 285 284 283 283 282 282 282 282 282 282 282 282 282 282 281 281 282 282 281 281 281 280 279 279
299 298 298 298 298 297 297 297 296 295 295 297 298 297 299 298 293 292 297 299 293 288 289 291 291 291 292 293 293 292 292 292 291 291 291 291 291 291 291 291 291 290 290 290 290 290 290 289 289 289 289 289 289 288 288 288 288 288 288 287 287 286 285 284 283 282 282 282 282 281 281 281 282 282 282 282 281 280 281 281 281 281 280 280 279 278 277
298 297 298 298 297 296 298 298 296 293 293 295 295 296 299 297 292 291 294 293 289 288 290 291 290 292 293 294 293 292 292 291 291 291 291 291 291 291 291 290 290 290 290 290 290 290 289 289 289 289 289 288 288 288 287 287 288 287 287 287 286 285 284 283 282 282 282 281 281 281 281 281 282 282 281 281 280 280 280 280 280 280 279 279 278 277 275
298 297 297 297 296 296 297 297 295 292 293 295 296 297 299 295 290 291 293 291 290 291 291 290 291 293 294 293 293 292 292 291 291 290 290 290 291 290 290 290 290 290 290 289 290 289 289 289 289 289 288 288 287 287 287 287 287 287 287 286 285 284 283 282 282 282 281 281 281 281 281 281 281 281 280 280 280 280 280 279 279 279 278 277 276 275 274
297 297 296 295 296 297 296 295 294 292 293 295 296 297 298 295 291 293 294 293 294 293 291 290 291 293 293 293 293 292 291 290 290 290 290 290 290 290 290 290 289 289 289 289 289 289 289 289 289 288 288 287 287 287 287 287 287 287 286 285 283 283 282 282 282 281 281 281 281 281 281 281 281 280 280 280 280 279 279 278 278 278 277 275 274 274 273
296 296 297 296 296 297 295 293 293 292 293 296 297 296 296 294 293 294 294 294 294 294 292 291 292 292 293 293 292 292 291 290 290 290 290 290 290 290 289 289 289 289 289 289 289 289 289 289 288 288 288 287 287 287 287 287 287 286 285 283 283 282 282 281 281 281 281 280 280 280 280 280 280 280 280 279 279 278 278 278 277 276 275 274 273 273 273
296 296 296 295 296 296 294 293 293 293 295 297 297 295 294 294 293 294 293 293 293 293 293 292 292 293 293 293 292 291 291 290 290 290 289 289 289 289 289 289 289 289 289 289 289 289 289 288 288 288 287 286 286 286 286 286 286 285 284 283 282 282 282 281 281 280 280 280 280 280 280 279 279 279 279 279 278 277 277 277 276 275 274 273 273 273 273
296 295 296 296 295 294 293 294 295 294 295 296 295 294 294 294 294 294 293 293 293 293 293 293 292 293 293 292 292 291 291 290 290 290 289 289 289 289 289 289 289 289 289 289 288 288 288 288 287 287 286 286 286 286 286 286 285 284 283 282 282 282 281 281 280 280 280 280 280 279 279 279 279 279 279 278 278 277 276 276 275 274 274 273 273 273 273
294 294 296 296 295 293 293 295 295 295 295 295 295 294 294 294 294 294 293 293 293 293 293 293 292 292 292 292 292 291 291 290 290 289 289 289 289 289 289 289 289 289 288 288 288 288 288 288 287 287 286 286 286 286 285 285 284 283 282 282 282 281 281 280 280 280 280 280 279 279 279 279 279 279 278 277 277 276 276 275 274 274 273 273 273 273 272
293 291 292 293 292 292 293 294 295 294 294 294 294 293 293 293 293 293 293 293 293 293 293 292 292 292 292 292 292 292 291 290 290 290 289 289 289 289 289 289 289 288 288 288 288 288 288 287 287 286 286 286 286 285 285 284 283 282 282 281 281 281 280 280 279 279 279 279 279 279 279 278 278 278 277 277 276 276 275 274 274 273 273 273 273 272 270
294 293 292 291 291 292 293 293 294 294 294 294 293 292 292 292 292 293 292 292 292 292 292 292 292 292 292 292 292 292 291 291 290 290 289 289 289 289 289 288 288 288 288 288 288 287 287 287 286 286 285 285 285 284 284 282 282 281 281 281 281 280 280 279 279 279 279 279 279 279 279 278 278 277 276 276 276 275 275 274 274 273 273 272 271 269 268
292 293 292 291 291 292 292 293 293 293 293 293 292 292 292 292 292 292 292 292 292 292 292 292 292 292 292 292 292 292 291 291 290 290 289 289 289 289 288 288 288 288 288 288 287 287 286 286 286 285 285 285 284 284 282 281 281 281 281 280 280 280 279 279 279 278 278 278 278 278 278 278 277 277 276 276 275 275 275 274 274 273 272 270 268 267 267
292 292 291 290 290 291 291 292 292 292 292 292 292 292 292 292 292 292 292 292 292 291 291 291 291 291 291 291 291 291 291 291 290 290 289 289 289 289 288 288 288 288 287 287 287 286 286 286 285 285 284 284 283 282 281 281 281 281 280 280 280 279 279 278 278 278 278 278 278 278 278 277 277 276 276 276 275 275 275 274 274 273 271 268 267 268 268
292 292 291 291 291 291 292 292 292 292 292 292 292 292 292 292 292 292 292 292 292 291 291 291 291 291 291 291 291 291 291 290 290 289 289 289 289 288 288 288 288 287 287 287 286 286 285 285 285 284 284 283 282 281 281 281 280 280 280 280 279 279 278 278 278 277 277 277 277 277 277 277 277 276 276 276 275 275 275 274 274 273 271 269 268 268 268
292 291 291 291 291 291 292 292 292 292 292 292 292 292 292 292 292 292 292 292 292 292 291 291 291 291 291 291 291 291 290 290 290 289 289 289 289 288 288 288 287 287 287 286 286 285 285 284 284 283 283 282 281 280 280 280 280 280 279 279 279 278 278 278 277 277 277 277 277 277 277 276 276 276 276 276 276 276 275 274 274 274 273 272 271 270 269
291 292 292 292 291 291 292 292 292 292 292 292 292 292 292 292 292 292 292 292 292 292 292 291 291 291 291 291 290 290 290 290 290 289 289 289 288 288 288 287 287 287 286 286 285 285 284 284 283 283 282 281 280 280 280 280 279 279 279 279 278 278 277 277 277 276 276 277 277 276 276 276 275 275 275 276 276 277 276 276 275 274 273 273 272 272 271
292 292 292 292 291 291 292 292 292 292 292 292 292 292 292 292 292 292 292 292 291 291 291 291 291 291 291 291 290 290 290 290 289 289 289 288 288 288 288 287 287 286 286 285 285 284 284 283 283 283 281 280 280 280 279 279 279 279 278 278 278 277 277 277 276 276 276 276 276 276 276 275 275 275 275 275 275 276 277 277 276 276 275 273 272 271 272
292 292 292 292 291 292 292 291 291 292 292 292 292 291 291 291 291 292 291 291 291 291 291 291 291 291 291 291 290 290 290 289 289 289 288 288 288 288 287 287 286 285 285 284 284 284 283 283 283 282 280 279 279 279 279 279 279 278 278 277 277 277 276 276 276 275 275 276 276 276 275 275 275 275 275 274 274 274 275 276 276 276 276 276 275 273 272
292 292 292 291 291 291 291 291 291 292 292 292 291 291 291 291 291 291 291 291 291 291 291 291 291 291 291 291 290 290 289 289 289 288 288 288 288 287 286 286 285 285 284 284 283 283 283 283 282 281 279 279 279 279 278 278 278 278 277 276 276 276 275 275 275 275 275 275 275 275 275 275 274 274 274 274 274 274 274 274 274 274 275 276 276 275 274
292 292 292 291 291 291 292 292 291 292 292 291 291 291 291 291 291 291 291 291 291 291 291 291 291 290 290 290 290 289 289 289 288 288 288 288 287 286 285 285 284 284 284 283 283 282 282 282 281 280 279 278 278 278 278 278 277 277 276 276 275 275 275 274 274 274 275 275 275 275 274 274 274 274 274 274 274 274 274 273 273 273 273 274 275 275 275
292 292 292 291 291 292 292 292 291 291 291 291 291 291 291 291 291 291 291 291 291 291 290 290 290 290 290 290 289 289 288 288 288 288 288 287 286 285 284 284 283 283 283 282 282 281 281 280 280 279 278 278 278 278 277 277 277 276 275 275 275 274 274 274 274 274 274 275 274 274 274 274 274 274 274 274 273 274 274 273 273 273 273 273 273 274 275
292 292 291 291 291 291 291 291 291 291 291 291 291 291 291 291 291 290 291 290 290 290 290 290 289 289 289 289 288 288 288 288 288 288 287 285 285 284 283 283 282 282 282 281 281 280 280 279 279 278 277 277 277 277 277 277 276 275 275 274 274 274 273 273 273 273 274 274 274 274 274 274 273 273 273 273 273 273 273 273 273 272 273 272 272 271 272
292 291 291 291 291 291 291 291 291 291 291 291 291 291 291 290 290 290 291 291 290 290 290 290 289 289 288 288 288 287 287 287 287 286 285 284 283 283 282 282 281 281 280 280 279 279 279 278 278 277 277 276 276 277 276 276 275 275 274 274 273 273 273 273 272 273 273 274 274 274 274 273 273 273 273 273 273 273 273 273 273 272 272 272 271 270 270
292 291 291 291 291 291 291 291 291 291 291 291 291 291 291 290 290 290 291 291 290 290 290 289 289 288 287 287 287 287 287 286 286 285 284 283 282 281 281 281 280 280 279 279 278 278 278 278 277 276 276 276 276 276 276 275 274 274 273 273 273 273 272 272 272 272 273 273 273 273 273 273 273 273 273 273 273 273 273 272 272 272 272 272 271 270 270
291 291 290 290 290 290 290 290 290 290 290 291 291 291 290 290 290 290 290 290 290 289 289 288 288 287 286 286 286 286 285 285 284 283 282 281 281 280 280 280 279 279 279 278 278 277 277 277 276 276 275 275 275 275 275 274 274 273 273 272 272 272 272 272 272 272 273 273 273 272 272 272 272 272 272 272 272 272 272 272 272 272 272 272 271 270 270
291 291 291 291 291 290 290 290 290 290 290 290 290 290 290 290 290 290 290 289 289 288 288 287 287 286 286 285 285 284 284 283 283 282 281 280 279 279 279 279 278 278 278 277 277 276 276 276 276 276 275 275 275 274 274 273 273 272 272 271 271 271 271 271 271 272 272 272 272 272 272 272 272 272 272 272 272 272 272 272 272 271 271 271 271 271 270
291 291 291 291 291 291 291 291 291 290 290 290 290 291 290 290 290 290 289 288 287 287 286 286 286 285 285 284 284 283 283 282 281 280 280 279 279 278 278 278 278 277 277 277 276 276 276 276 276 275 275 274 274 273 273 272 272 272 271 271 271 271 271 271 271 271 272 272 272 272 271 271 271 272 271 271 272 272 272 271 271 271 271 271 271 271 270
291 291 291 291 291 291 291 290 290 290 290 290 290 290 290 289 289 289 288 287 287 286 286 285 285 284 283 283 283 282 281 280 280 279 279 278 278 278 277 277 276 276 276 276 275 275 275 275 275 274 274 273 273 272 272 271 271 271 270 270 270 270 270 270 270 270 271 271 271 271 271 271 271 271 271 271 271 271 271 271 271 271 270 270 270 270 270
291 291 291 291 291 291 290 290 290 290 290 289 289 289 288 288 288 288 287 286 286 285 284 283 283 282 282 281 281 280 280 279 278 278 277 277 277 277 276 276 276 275 276 275 274 274 274 274 274 274 273 273 272 272 271 270 270 270 270 270 270 270 270 270 270 270 270 271 271 271 271 271 271 271 271 271 271 270 270 270 270 270 270 270 270 270 270
291 290 290 290 290 290 290 289 289 289 288 288 288 287 287 287 287 286 285 285 284 283 282 281 281 280 280 279 279 278 277 277 276 276 276 275 275 275 275 275 275 275 275 274 274 273 273 273 273 273 272 272 271 271 270 269 269 269 269 269 269 269 269 269 269 270 270 270 270 270 270 270 270 270 270 270 270 270 270 270 270 270 270 270 270 270 270
290 290 290 289 289 288 288 288 287 287 286 286 286 286 286 285 285 284 283 282 282 281 281 280 279 279 278 277 277 276 275 275 275 274 274 274 274 275 275 275 274 274 274 274 273 273 273 272 272 272 271 271 270 269 269 269 268 268 269 269 269 269 269 269 269 269 269 269 270 270 270 270 270 270 270 270 270 270 270 270 270 269 269 269 269 269 269
289 289 289 288 287 287 286 286 285 285 285 285 284 284 284 283 282 282 281 281 280 279 279 278 277 276 276 275 275 274 274 274 274 274 274 274 274 274 275 275 274 273 272 273 273 272 272 271 271 271 270 269 269 268 268 268 268 268 268 268 268 268 268 269 269 269 269 269 269 269 269 270 270 269 270 270 270 269 269 269 269 269 269 269 269 269 269
288 288 287 286 285 285 284 284 284 283 283 283 282 282 281 281 280 280 279 279 278 277 276 276 275 274 274 274 273 273 273 273 273 273 273 273 273 273 274 274 273 271 271 271 271 270 270 270 269 269 268 268 268 267 267 267 267 268 268 268 268 268 268 268 268 268 268 268 268 268 269 269 269 269 269 269 269 269 269 269 269 269 269 269 269 269 269
287 286 285 284 283 283 283 282 282 282 281 281 280 280 279 278 278 278 277 276 276 275 274 274 274 273 273 273 273 273 272 272 272 272 272 272 272 272 272 272 271 270 270 270 269 269 268 268 267 267 267 267 267 267 267 267 267 267 267 267 267 268 268 268 268 268 268 268 268 268 268 268 268 268 269 269 269 269 269 269 269 268 268 268 269 269 269
285 284 283 283 282 282 282 281 281 280 280 279 278 278 277 276 276 275 275 274 274 274 273 273 273 273 273 273 273 272 272 272 271 271 271 270 270 270 270 270 269 268 268 268 267 267 267 266 266 266 266 266 266 266 266 267 267 267 267 267 267 267 268 268 268 268 267 267 267 267 267 267 267 268 268 268 269 269 269 269 268 268 268 268 268 268 268
282 282 281 281 281 281 280 280 279 279 278 277 276 276 275 274 274 274 273 273 273 273 273 273 273 273 272 272 272 271 271 270 270 270 270 269 269 268 267 267 266 266 265 265 265 265 265 264 264 264 265 265 265 266 266 266 266 266 267 267 267 267 268 268 267 267 267 267 267 267 267 267 267 267 267 268 268 268 268 268 268 268 268 268 268 268 268
281 280 280 279 279 278 278 277 277 276 275 275 274 274 273 273 273 273 273 273 273 272 272 272 272 272 271 271 271 270 270 269 268 268 268 268 267 267 266 265 264 263 263 263 263 263 263 263 263 264 264 265 265 265 265 266 266 266 266 267 267 267 267 267 267 267 267 267 267 267 267 267 267 267 267 267 268 268 268 268 267 267 268 268 268 268 268
279 279 278 277 277 276 276 275 274 274 273 273 273 273 272 272 272 272 272 272 272 272 272 271 271 271 270 270 269 269 268 268 267 267 266 266 266 265 264 263 263 262 262 262 262 262 262 263 263 264 264 264 265 265 265 265 265 266 266 266 267 267 267 267 267 266 267 267 267 267 267 267 267 267 267 267 267 267 267 267 267 267 267 267 267 267 268
278 277 277 276 275 275 274 274 273 273 273 272 272 272 272 272 272 272 271 271 271 271 271 270 270 269 269 269 268 268 267 267 266 266 265 265 264 264 263 263 262 262 262 262 262 262 263 263 263 264 264 264 264 264 265 265 265 265 266 266 266 266 266 266 266 266 266 266 267 267 267 267 267 267 267 267 267 267 267 267 267 267 266 266 267 267 267
276 276 275 274 273 273 273 272 272 272 272 272 272 272 271 271 271 271 271 270 270 270 270 269 269 268 268 268 267 267 267 266 265 265 265 264 264 263 263 263 262 262 262 262 263 263 263 263 263 263 264 264 264 264 264 265 265 265 266 266 266 266 266 266 266 266 266 267 267 267 267 267 267 267 267 267 267 267 267 266 266 266 267 267 266 267 267
274 273 273 273 272 272 272 272 271 271 271 271 271 271 271 270 270 270 270 270 269 269 269 268 268 267 267 267 266 266 266 266 265 265 264 264 264 264 264 263 263 263 263 263 263 263 263 263 263 263 264 264 264 264 265 265 265 266 266 266 266 266 266 266 266 266 267 267 267 267 267 267 267 267 267 267 267 267 267 266 266 266 266 266 267 267 267
272 271 271 271 271 271 271 271 271 271 271 270 270 270 270 270 269 269 269 269 268 268 267 267 267 267 266 266 266 265 265 265 265 265 264 264 264 264 264 264 264 264 264 264 264 263 263 264 264 264 264 264 264 265 265 265 266 266 266 266 266 266 266 266 266 266 266 266 266 266 266 266 266 266 266 266 266 266 266 266 266 266 266 266 266 267 267
271 270 270 270 270 270 270 270 270 270 270 270 269 269 269 269 268 268 268 267 267 267 267 267 267 266 266 265 265 265 265 265 265 265 265 264 264 264 264 264 264 264 264 264 264 264 264 264 264 264 264 265 265 265 265 265 266 266 266 266 266 266 266 266 266 266 266 266 266 266 266 266 266 266 266 266 266 266 266 266 266 266 266 266 266 266 266
270 270 270 270 270 270 270 269 269 269 269 269 268 268 268 268 268 267 267 267 267 266 266 266 266 266 266 265 265 265 265 265 265 265 265 264 264 264 264 264 264 264 264 264 264 264 264 264 264 265 265 265 265 265 265 266 266 266 266 266 266 266 266 266 266 265 265 265 266 266 266 266 266 266 266 266 266 266 266 266 266 266 266 266 266 266 266
Wind_Speed
2 4 4 3 3 3 4 6 8 11 10 6 7 7 9 7 6 9 10 6 6 10 9 5 6 7 9 11 16 17 16 16 17 17 17 18 18 18 19 17 16 15 14 15 16 16 14 12 11 10 9 10 10 11 12 14 15 17 18 20 21 22 21 22 24 26 28 30 31 32 33 33 32 32 32 33 33 34 35 37 38 39 41 42 44 45 46
2 2 3 3 4 3 4 7 11 11 9 5 7 10 12 9 9 11 11 10 11 11 8 7 9 13 13 13 14 12 10 10 10 11 12 14 15 17 18 17 16 15 15 15 16 15 14 12 11 11 12 13 13 14 15 16 17 18 19 20 22 22 22 23 25 28 30 31 33 34 35 35 34 34 34 34 35 35 36 37 39 40 42 43 45 46 47
4 1 2 3 3 3 4 9 12 9 3 4 9 12 9 6 8 11 10 9 12 13 8 6 10 12 9 10 11 11 10 9 9 9 11 13 15 17 17 16 15 14 14 14 15 15 13 13 13 13 14 15 16 17 17 17 18 19 20 21 22 23 23 24 27 29 31 32 34 35 35 35 35 35 35 36 37 38 38 39 40 41 43 44 45 46 47
4 2 2 2 2 3 5 12 15 9 5 7 10 7 6 8 10 9 7 6 9 11 7 3 6 8 10 11 12 12 11 10 9 10 11 12 14 15 15 14 13 13 13 13 13 14 14 15 15 16 17 18 19 19 19 20 21 22 22 23 23 23 24 26 29 30 32 33 34 35 35 35 35 36 38 38 39 40 41 42 42 43 44 44 45 46 47
4 4 2 2 5 5 7 11 10 10 10 11 10 7 8 10 7 5 6 8 8 8 4 2 4 7 10 11 12 12 11 11 10 10 9 10 11 12 12 13 13 13 14 14 15 15 15 16 17 18 19 21 22 22 22 23 23 23 23 23 23 24 26 28 30 31 32 33 34 34 34 35 37 38 39 40 41 42 42 43 43 44 45 45 46 47 48
3 5 1 4 1 6 8 4 4 8 10 11 10 10 11 9 7 6 7 6 5 5 5 7 9 10 10 11 11 11 11 12 11 10 9 9 10 10 11 11 12 12 13 13 14 14 14 15 16 17 19 20 22 23 23 24 23 23 22 23 24 26 29 30 31 31 32 33 33 34 36 37 38 39 39 41 41 42 42 43 44 45 46 47 48 49 49
2 2 3 1 8 9 5 3 1 5 7 8 7 8 9 9 9 8 8 7 6 8 12 14 13 10 8 9 11 11 10 11 11 9 9 11 11 12 12 12 12 12 13 13 14 14 15 15 15 16 16 17 19 20 21 22 22 22 23 25 27 29 30 30 30 31 31 32 34 36 37 38 39 39 40 41 41 41 42 43 44 45 47 48 49 50 50
2 2 4 6 7 5 7 7 3 2 1 2 1 5 9 10 9 8 8 9 10 12 14 12 8 7 8 8 9 9 9 10 9 9 10 11 12 12 12 12 13 13 14 15 16 17 17 16 16 16 15 16 17 19 20 21 22 24 26 28 30 30 30 30 30 30 32 33 35 37 37 38 39 40 41 41 41 42 42 43 45 46 47 48 49 50 51
2 3 5 5 4 8 12 10 3 3 4 5 5 4 8 8 7 8 8 8 9 9 9 8 7 7 6 3 6 10 10 9 7 7 7 7 9 10 10 11 13 13 15 17 19 20 19 18 17 16 16 16 17 18 20 22 24 26 29 30 31 31 30 30 30 31 33 35 36 37 38 39 40 41 41 41 41 42 43 45 46 46 47 48 48 49 51
2 3 4 4 3 8 11 7 2 3 6 8 7 3 6 6 7 13 11 7 7 7 8 9 9 7 3 3 6 11 11 8 6 6 7 8 10 11 12 13 14 15 17 19 20 20 20 19 18 17 17 17 17 18 20 21 24 26 29 30 31 30 30 30 31 33 34 35 36 37 38 39 40 41 41 41 42 42 43 45 46 47 47 49 49 48 48
2 3 5 5 6 8 7 6 4 4 10 11 8 3 5 6 9 16 11 7 10 13 14 15 10 5 3 5 10 13 12 8 8 9 9 11 13 14 14 15 15 17 19 20 20 21 20 20 19 19 18 18 18 20 21 22 25 27 29 30 31 30 30 31 32 34 35 35 36 37 39 39 40 40 41 41 42 42 43 45 46 47 47 49 50 48 45
6 6 5 4 5 6 4 5 6 8 10 9 8 2 8 5 9 16 14 13 16 19 20 17 10 6 8 8 13 13 10 9 10 10 12 15 16 15 15 15 16 18 20 21 22 22 22 22 21 20 20 20 20 22 23 25 27 29 30 30 29 30 30 32 33 34 35 35 36 37 38 39 39 40 40 41 42 42 43 44 45 47 47 47 48 46 43
8 8 6 4 4 5 4 6 12 12 7 5 3 5 6 7 12 15 18 19 20 20 21 19 14 14 17 17 15 11 9 11 12 11 14 17 18 17 17 17 17 19 20 22 23 23 23 23 23 22 22 22 23 24 25 27 28 29 29 29 28 29 31 33 34 34 34 35 36 37 37 38 39 40 40 40 41 42 43 44 45 46 46 44 45 45 42
6 6 5 4 5 7 8 10 14 13 6 1 6 5 2 9 13 13 17 21 20 20 24 24 22 22 23 21 17 13 12 14 13 12 14 17 19 19 19 19 20 21 22 23 24 25 25 25 24 24 23 24 24 25 26 28 29 29 29 28 28 30 32 33 34 34 34 35 35 36 36 37 38 39 39 39 40 40 41 43 44 44 44 42 42 43 41
4 3 4 5 6 7 16 15 5 5 6 6 9 8 8 11 13 13 17 20 20 22 25 27 27 25 23 21 19 16 15 15 15 15 16 17 19 20 20 21 22 22 24 25 26 27 27 26 26 25 24 25 25 25 27 28 29 29 28 28 30 32 33 33 33 33 34 35 34 35 35 36 38 39 38 38 38 39 39 41 42 43 42 41 41 41 41
5 4 6 6 4 7 22 20 8 10 17 19 18 14 12 14 14 15 18 20 21 23 25 26 27 27 26 25 22 19 18 18 17 17 17 18 20 21 21 22 23 24 25 26 27 28 28 27 26 25 25 26 26 27 28 29 29 28 28 29 31 33 33 33 33 33 34 34 33 34 34 36 37 37 37 37 38 38 37 38 40 41 40 39 39 40 40
5 5 6 6 5 9 22 26 20 19 24 27 25 17 14 15 17 18 19 21 22 23 25 27 28 28 28 27 24 23 22 20 19 19 19 20 21 21 22 23 24 25 26 26 27 28 28 27 27 26 27 28 28 28 28 29 28 28 28 30 32 33 33 33 33 33 33 33 32 33 34 35 35 36 35 36 37 37 36 36 37 38 39 38 38 38 39
2 3 5 6 6 10 20 28 26 22 21 22 21 19 19 21 22 22 22 22 23 23 25 28 29 30 29 29 28 26 24 22 21 21 21 21 21 22 23 24 25 26 26 27 28 29 28 28 27 28 28 28 28 28 29 28 27 28 29 31 32 32 32 32 32 32 33 32 32 32 33 33 33 33 33 34 35 35 35 34 35 36 37 37 37 38 40
2 2 4 7 10 12 18 25 29 28 25 23 22 22 23 24 24 25 25 24 24 25 26 28 30 30 31 31 31 29 27 26 24 23 23 23 22 22 24 24 25 26 26 28 29 29 29 28 28 28 28 28 28 29 28 28 27 28 30 32 32 32 31 31 31 31 32 32 32 32 32 32 32 32 31 31 33 33 33 33 34 35 36 36 37 39 42
4 4 7 12 16 16 17 21 26 28 27 27 25 25 25 25 25 26 27 27 27 27 27 28 30 31 31 32 33 31 29 29 27 26 26 24 22 23 24 24 25 26 27 28 29 29 28 28 28 28 28 27 28 28 28 28 28 29 30 31 31 31 31 31 31 31 31 31 31 32 32 31 31 31 30 29 30 31 30 31 34 36 36 37 38 40 42
2 5 9 10 9 10 16 24 29 30 30 32 31 29 29 28 28 29 30 30 29 29 29 30 30 31 31 31 31 31 31 30 29 28 27 24 23 24 24 25 26 27 27 29 29 29 28 29 29 28 27 26 27 27 27 28 29 30 31 31 31 30 30 30 30 30 30 30 30 31 31 31 30 29 28 28 29 31 30 29 31 34 35 35 37 38 39
3 5 10 11 6 6 17 29 32 32 32 32 31 30 30 29 30 31 31 31 31 31 32 31 31 32 32 31 30 31 31 30 30 29 27 25 24 23 24 25 27 27 29 30 30 29 29 29 29 28 26 25 26 27 27 28 29 30 30 31 30 30 29 29 29 30 30 29 29 29 30 30 30 29 27 24 24 28 30 29 28 30 31 32 33 34 36
9 12 18 20 15 12 21 30 32 31 30 28 28 28 28 27 28 29 30 30 31 31 31 31 31 33 33 31 30 30 30 30 29 29 27 25 23 23 25 26 27 29 30 30 30 29 29 29 28 27 26 25 26 27 27 28 29 29 30 30 30 30 29 29 29 29 29 29 29 29 28 28 29 30 29 25 21 20 25 28 28 29 29 29 29 29 31
13 21 29 27 21 20 27 33 33 32 31 30 29 29 29 29 28 27 27 28 29 30 30 30 30 30 30 30 30 31 30 29 29 29 27 25 23 24 25 27 29 30 31 31 30 30 29 28 28 27 25 25 26 27 27 27 28 28 28 29 30 29 29 29 28 28 28 28 28 28 27 27 27 28 30 30 26 21 20 22 26 29 30 29 28 28 29
25 32 35 28 22 24 30 32 31 32 34 34 32 31 31 30 28 26 26 27 29 30 30 29 29 28 29 30 31 32 31 30 30 29 26 24 24 25 27 29 30 31 31 31 30 30 29 29 29 27 26 26 27 27 26 27 27 27 27 28 28 28 28 28 28 27 27 27 27 27 26 26 26 26 28 31 32 30 25 22 21 22 24 27 29 31 31
35 38 36 27 21 27 30 27 29 36 40 38 36 34 33 31 30 29 29 29 29 29 29 30 30 30 31 32 32 33 33 32 31 28 26 25 26 27 28 30 30 30 31 30 30 29 29 29 29 27 26 26 27 27 26 26 26 26 26 26 26 26 26 27 28 27 26 26 26 26 25 25 25 25 26 28 31 34 34 31 27 22 19 20 24 29 32
35 38 34 21 18 29 35 33 35 42 43 39 35 34 34 32 31 30 29 29 29 29 29 30 31 31 32 33 32 33 33 33 31 28 26 26 28 28 29 30 30 30 30 30 29 29 29 29 29 27 25 26 27 26 26 26 26 25 25 24 24 24 24 25 26 26 25 25 24 24 24 23 23 24 26 27 29 31 33 34 34 32 28 24 23 26 29
34 37 33 25 25 36 41 39 38 39 38 35 33 32 31 29 28 29 30 30 29 29 30 30 31 31 32 32 32 33 33 32 29 27 26 28 28 28 29 29 29 29 30 29 28 28 29 29 29 26 25 26 27 26 25 26 26 25 24 23 23 22 23 24 25 25 24 24 23 22 22 22 22 23 24 26 28 29 30 31 32 33 32 30 27 26 27
38 38 35 33 36 40 40 38 36 35 34 33 32 30 29 29 29 30 31 30 29 29 29 29 29 30 31 31 32 32 31 29 26 26 28 29 28 28 28 28 29 29 29 28 28 28 28 28 28 26 25 26 26 25 25 25 25 24 23 22 22 22 22 23 23 23 22 22 21 21 20 21 21 22 23 25 26 27 28 29 29 29 29 28 28 28 28
42 35 31 32 34 35 36 37 38 37 36 35 33 32 32 32 32 33 33 31 30 30 29 28 28 29 29 30 31 29 27 26 27 28 29 28 28 27 28 28 28 29 29 28 27 27 27 27 27 25 25 25 25 25 25 26 25 24 23 21 21 21 22 23 22 22 21 20 20 19 19 19 20 21 22 23 25 26 26 26 26 26 26 26 27 28 29
37 28 26 30 32 32 34 36 37 37 36 34 34 35 34 33 33 34 33 32 31 30 29 29 29 29 29 29 28 27 26 28 29 29 28 27 27 27 27 28 28 29 28 26 25 25 26 26 26 25 25 25 25 25 25 25 24 23 21 20 20 20 21 22 21 21 20 20 18 18 17 17 18 20 21 22 23 23 24 24 24 24 24 25 26 27 28
31 25 25 28 29 29 31 33 34 35 34 33 34 36 35 34 34 34 32 31 30 29 28 29 28 27 26 26 26 27 28 29 28 28 27 26 26 26 26 28 28 28 27 25 24 25 26 26 25 25 25 25 25 24 25 24 23 22 21 20 19 19 20 20 20 19 19 18 17 17 16 16 17 19 20 20 21 21 21 22 22 23 23 24 25 25 26
27 24 26 28 28 27 29 32 33 33 34 34 34 36 36 35 34 33 31 30 29 28 28 28 26 25 25 26 27 28 28 27 26 26 25 24 24 25 27 28 28 28 27 25 24 24 26 26 26 25 24 24 24 24 24 23 22 21 20 19 19 19 18 18 19 18 18 17 16 15 15 16 17 17 18 18 19 19 19 20 21 22 22 22 23 23 24
32 33 34 35 33 31 32 35 36 35 35 34 34 35 35 34 33 32 30 29 28 27 27 26 25 25 26 27 27 27 26 25 25 24 23 23 23 25 26 27 27 27 26 25 24 25 26 26 26 25 24 23 23 22 22 22 22 21 20 20 19 18 17 18 18 17 17 16 15 14 14 15 15 16 17 17 17 18 18 18 19 20 20 21 21 21 22
37 35 36 37 37 36 37 38 36 35 34 34 33 33 33 32 31 31 29 28 27 26 26 26 26 27 27 27 26 25 24 24 23 23 22 23 24 25 26 26 26 26 26 24 24 25 26 26 26 26 24 23 22 22 22 22 21 21 20 19 19 18 17 17 17 17 16 15 14 14 14 14 15 15 16 16 16 17 17 17 18 18 19 19 20 20 20
36 34 35 37 37 37 37 37 35 35 34 33 32 31 29 27 27 27 27 27 26 26 26 26 26 26 25 25 24 23 23 22 22 22 22 23 23 24 26 26 25 26 26 23 22 24 26 26 25 26 25 23 22 22 22 21 21 21 20 19 18 18 17 17 16 15 15 14 14 14 14 14 14 15 15 15 15 16 16 16 16 16 17 17 18 19 20
36 35 36 37 36 36 36 35 34 33 33 31 30 28 25 24 24 24 25 25 25 24 24 24 23 22 22 21 21 21 21 21 21 21 21 23 23 25 26 26 25 25 25 23 21 22 25 26 26 27 26 24 22 22 22 21 21 20 19 19 18 17 17 16 16 14 14 13 13 13 14 14 13 13 14 14 15 15 15 15 15 15 15 16 17 18 19
35 34 35 35 35 35 34 33 32 30 29 27 26 24 23 23 23 23 23 23 22 21 21 20 19 19 19 18 18 19 18 19 21 21 21 22 23 24 25 25 24 24 24 24 24 25 26 26 26 26 25 23 22 22 21 21 20 20 19 18 18 17 17 16 15 14 13 13 12 13 13 14 13 13 13 13 14 14 14 14 14 14 14 15 16 17 18
33 34 34 34 33 31 31 30 28 26 25 23 22 21 21 21 21 21 20 20 19 18 18 17 17 17 17 16 16 16 17 19 20 20 21 22 24 25 26 25 23 23 24 26 28 27 25 24 24 23 22 21 22 21 21 21 20 19 18 18 17 16 16 16 14 13 12 12 12 12 12 12 13 13 13 13 13 13 13 13 13 13 13 14 15 16 17
31 31 32 30 28 28 27 26 24 22 21 20 19 18 18 18 18 18 17 17 16 16 16 15 15 14 14 14 15 15 16 18 19 20 21 23 24 26 28 26 23 22 25 28 29 27 24 23 22 21 20 20 21 20 20 20 19 18 18 17 17 16 16 15 14 13 12 12 12 12 11 11 12 12 12 12 12 12 12 12 12 12 13 13 14 15 15
28 29 28 26 24 23 22 20 19 18 17 16 16 15 15 15 15 15 15 14 14 14 13 12 12 12 12 14 14 15 16 18 19 20 23 24 24 27 29 28 23 21 25 29 28 26 24 22 21 20 19 19 20 19 19 19 18 18 17 17 16 16 16 15 13 12 12 12 12 12 11 11 10 11 11 12 12 12 12 12 12 12 13 13 14 14 14
26 26 24 22 21 20 18 17 16 15 14 14 13 13 13 13 13 13 12 12 11 11 11 10 11 11 12 14 15 15 16 17 19 21 23 24 25 27 30 28 24 22 25 27 26 24 23 21 20 19 19 18 18 18 18 18 17 17 16 16 16 16 15 14 13 12 12 12 12 12 12 11 10 10 10 11 11 12 12 12 11 12 12 13 13 14 14
23 22 20 19 18 16 15 14 14 13 12 12 12 12 12 11 11 10 10 9 8 9 9 9 10 11 13 14 15 16 17 18 19 21 22 23 24 25 27 28 25 23 23 23 23 21 20 19 18 18 17 17 17 17 16 16 16 16 16 16 16 15 15 14 13 12 12 12 12 12 12 11 11 11 11 11 11 12 12 12 12 12 12 12 13 14 14
18 17 16 15 14 14 13 13 13 12 12 12 11 11 10 10 8 8 7 7 7 8 8 9 11 12 13 15 16 16 17 18 19 20 22 23 22 20 22 24 24 20 18 18 18 16 16 16 16 16 16 16 16 16 15 15 16 16 15 15 15 14 14 13 12 12 12 12 12 12 12 12 12 12 11 11 12 11 11 12 12 12 12 13 13 13 14
14 14 13 12 12 12 12 12 11 11 11 10 10 9 8 7 7 6 6 6 7 8 8 9 11 12 13 14 15 15 15 16 16 18 20 22 21 18 17 19 20 18 15 14 14 13 13 14 15 14 15 15 15 15 15 15 15 14 14 14 14 13 12 12 11 12 12 12 12 12 12 12 12 12 12 13 13 12 12 12 13 13 13 13 13 14 14
12 12 12 12 12 12 11 11 10 10 9 9 8 7 7 6 5 5 5 6 7 7 8 9 10 11 11 12 12 12 12 11 12 15 16 17 17 16 14 14 15 14 13 13 13 12 12 13 13 13 14 14 13 13 13 13 13 13 13 13 12 12 11 11 11 11 11 11 12 12 12 12 13 13 13 13 14 14 14 14 14 14 15 15 15 15 15
11 11 11 11 11 11 11 10 9 9 8 7 6 5 5 4 4 4 5 5 6 7 7 8 8 9 9 9 9 9 8 7 8 10 12 13 13 13 11 10 10 10 10 11 11 10 10 11 12 12 12 12 12 12 12 12 12 12 12 12 12 11 11 11 11 11 12 12 12 12 12 13 13 13 14 14 15 15 15 15 15 15 16 16 16 16 16
10 11 11 12 11 11 10 10 9 8 7 6 5 4 3 3 3 4 4 4 5 5 6 6 6 7 7 7 7 7 7 6 6 6 8 9 10 10 9 8 8 7 7 8 8 9 9 10 10 10 10 11 11 11 11 12 12 12 12 12 12 12 11 11 11 12 12 12 12 12 13 13 13 14 15 15 15 16 16 16 16 16 17 17 17 17 17
11 11 11 11 11 10 9 8 7 6 5 4 4 3 3 3 3 3 4 4 4 4 4 5 5 6 6 6 6 6 7 6 6 6 6 7 7 7 7 7 7 7 7 8 8 8 9 9 9 8 9 10 10 11 11 11 11 11 11 11 11 11 11 10 11 12 12 13 13 13 14 14 15 15 16 16 16 16 16 16 17 17 17 17 17 17 18
11 11 10 9 9 8 7 6 5 5 4 4 3 3 3 3 3 3 3 3 3 4 4 5 5 5 5 6 6 6 7 7 6 6 6 6 6 6 6 7 7 8 9 8 8 8 8 9 9 9 9 9 10 10 11 10 10 10 10 10 11 10 10 11 12 13 14 14 14 15 15 16 16 16 17 17 17 17 16 17 17 17 17 18 18 18 18
10 10 9 8 8 7 7 6 5 5 4 3 3 3 3 3 2 2 2 3 3 3 4 5 5 5 5 5 6 6 7 8 8 7 7 6 6 6 7 7 8 8 9 8 8 8 8 9 9 9 10 10 10 10 10 10 10 10 10 10 11 11 12 14 15 15 15 15 15 15 15 16 16 16 17 17 16 16 16 16 17 17 17 18 18 18 19
10 9 8 7 7 7 6 5 5 5 4 4 4 4 3 2 2 2 3 3 3 3 4 4 5 5 5 5 6 6 7 8 9 9 8 7 7 8 8 8 8 8 8 8 8 8 8 9 9 9 9 9 10 10 9 10 10 10 11 12 13 14 15 16 16 15 14 14 14 14 14 15 15 16 15 15 15 15 16 16 16 17 17 17 18 18 19
Wind_Direction
251 100 135 174 147 174 214 221 238 251 246 193 153 201 223 199 207 247 253 242 229 245 257 240 210 225 243 260 266 261 252 245 242 241 242 242 236 224 220 222 224 228 234 240 243 240 234 231 237 248 257 265 272 280 286 291 292 292 292 291 291 294 299 305 311 314 316 316 317 317 316 315 314 313 312 311 311 311 311 311 311 311 311 311 310 310 309
270 108 165 189 164 190 231 233 234 241 246 213 184 220 233 219 226 248 257 259 259 256 248 240 256 266 264 258 253 240 228 224 225 230 234 233 227 221 221 224 227 233 241 245 244 238 232 237 251 260 266 273 279 282 284 285 284 283 283 282 285 289 295 302 308 311 312 313 314 313 312 311 310 309 308 308 308 307 307 308 308 308 308 308 308 308 307
295 304 185 191 161 181 233 256 252 242 217 211 225 234 236 229 239 248 252 261 268 266 251 233 259 266 246 219 211 205 207 211 209 214 219 220 219 220 222 226 229 236 241 241 239 237 239 251 262 269 273 275 275 275 276 275 273 273 273 275 279 283 289 297 303 306 308 310 310 309 307 306 306 306 306 305 305 305 305 305 305 306 306 306 306 306 306
276 300 182 201 36 32 281 270 261 244 216 230 240 232 207 216 233 241 246 251 258 266 268 243 235 228 209 202 199 195 200 203 207 218 219 217 217 218 222 226 229 230 231 232 236 240 247 256 261 266 269 267 265 264 264 264 264 265 267 270 274 277 284 294 300 302 304 305 305 304 304 304 304 304 304 304 305 305 305 306 306 306 307 307 307 307 306
267 296 192 139 43 13 282 265 247 230 233 240 246 249 234 224 214 214 229 234 240 254 267 256 230 220 216 210 197 192 200 202 209 221 218 214 215 215 220 224 224 226 227 229 235 240 246 252 255 258 259 258 259 260 260 261 261 263 265 268 271 277 286 294 297 299 300 302 302 303 303 303 303 303 304 304 305 305 306 306 307 307 308 308 308 308 307
248 271 45 72 6 257 257 253 169 193 223 231 232 243 243 227 201 205 231 243 242 233 220 226 235 234 225 207 189 185 196 203 208 211 208 209 212 213 221 226 225 226 226 227 233 240 248 254 255 255 256 258 261 262 262 262 261 262 265 269 276 284 290 293 295 297 299 300 301 302 302 302 303 304 304 305 305 305 306 307 308 308 309 309 309 309 308
196 229 80 127 241 244 271 329 160 191 215 220 225 247 253 238 220 220 238 246 233 222 225 230 234 228 200 180 176 178 194 210 217 220 223 226 226 226 231 235 235 237 238 240 246 251 258 262 262 262 263 266 268 268 267 266 266 268 273 280 286 290 291 293 295 297 299 300 300 302 303 304 305 306 306 306 306 307 307 308 309 310 310 310 309 309 308
159 148 165 219 249 290 302 284 239 181 227 185 207 281 267 243 221 208 222 235 233 232 234 231 218 188 162 167 186 193 206 224 230 235 238 236 236 238 241 244 248 253 257 259 261 263 267 268 266 265 267 270 273 274 275 276 278 282 286 289 291 292 293 296 297 298 299 301 302 304 305 306 307 307 307 307 308 309 309 310 310 310 310 310 309 309 309
174 174 214 245 325 313 285 268 199 175 214 172 151 239 260 247 210 184 194 227 232 220 212 193 169 167 170 200 216 207 213 226 232 240 249 247 244 243 243 247 253 259 264 266 267 268 268 266 263 262 263 265 270 274 278 282 285 287 289 290 291 293 295 296 297 300 302 304 306 307 308 308 308 308 308 308 310 310 310 310 310 310 311 311 311 312 311
123 132 240 273 290 263 261 261 224 183 190 169 146 182 269 274 203 180 180 202 196 169 164 170 165 164 187 269 235 206 205 223 243 257 260 255 253 249 245 250 255 259 263 264 264 264 262 260 259 259 259 262 268 274 280 285 289 290 291 292 294 295 296 297 300 303 306 308 309 309 309 309 309 308 309 310 311 311 311 310 311 312 314 314 314 314 314
142 162 224 232 235 249 252 252 251 158 154 149 110 78 283 269 194 185 181 171 174 176 180 179 170 157 180 248 249 226 214 231 260 272 268 256 252 251 252 257 260 260 262 262 260 260 259 259 258 257 258 264 273 282 289 293 293 293 293 294 296 296 297 300 304 306 308 310 310 310 310 309 309 309 310 311 311 311 311 312 314 315 317 316 316 315 315
211 210 228 234 243 253 245 227 207 161 143 124 89 26 271 245 178 183 184 178 187 194 191 179 168 178 200 241 266 252 235 248 263 268 266 255 249 250 256 261 262 260 260 259 259 260 260 259 258 257 261 270 282 291 296 296 295 295 294 295 295 296 299 303 306 308 309 310 310 310 310 309 310 310 311 311 311 312 313 315 317 318 318 317 316 315 314
225 218 230 258 264 245 218 181 175 163 121 81 132 227 236 183 172 186 191 193 200 203 195 186 193 221 236 254 267 256 245 260 263 258 253 249 248 253 261 265 265 263 261 260 261 261 261 260 259 260 267 279 289 295 297 296 295 295 295 295 295 298 301 305 307 309 310 311 310 310 310 310 310 310 310 311 312 315 317 318 319 318 318 317 315 313 312
225 225 230 254 276 243 194 168 171 167 130 99 218 227 193 177 190 202 203 207 214 213 207 207 219 239 251 254 250 247 256 265 264 252 241 240 246 255 260 263 264 263 263 263 263 263 262 261 262 266 275 284 291 295 295 295 296 296 296 297 298 301 304 307 309 310 311 311 311 311 311 311 310 309 311 313 315 318 320 320 319 318 317 316 314 312 311
177 217 220 222 268 219 165 148 152 183 179 221 238 247 251 234 230 227 219 222 229 225 221 224 232 244 250 244 241 249 257 259 258 250 240 239 246 252 255 257 259 261 263 263 263 263 263 263 266 272 281 288 292 294 295 295 296 296 296 298 300 304 307 308 310 311 311 311 311 311 312 311 309 310 314 316 319 320 321 321 319 317 316 315 314 312 313
156 194 211 207 259 187 160 159 186 209 208 229 243 242 243 246 245 241 235 238 241 236 233 234 237 242 243 243 247 254 254 251 251 247 240 239 244 248 252 255 258 261 262 263 263 262 263 265 270 278 285 290 293 293 294 295 296 295 296 299 302 305 308 309 311 312 311 311 311 312 311 310 310 313 317 319 321 322 322 322 319 316 315 315 315 315 317
171 190 217 217 232 194 178 185 204 212 217 233 239 238 245 252 251 249 245 246 248 245 242 240 240 241 243 247 253 258 258 255 250 246 244 243 245 250 254 257 259 261 262 262 261 262 264 268 274 282 287 290 291 292 293 294 294 294 296 300 303 306 308 310 312 311 310 311 311 311 311 311 313 316 320 321 322 323 323 322 318 316 316 317 317 319 322
215 223 232 218 214 205 196 200 211 219 225 232 236 245 257 260 258 256 254 256 258 255 248 243 241 244 249 252 257 260 259 256 252 249 246 243 247 254 258 259 259 258 258 259 260 262 266 271 277 284 287 288 289 292 293 293 292 294 298 302 305 307 309 311 312 311 310 310 311 311 311 313 316 319 322 322 322 323 323 321 319 317 318 319 322 325 326
217 225 224 201 196 200 197 202 213 220 224 231 243 256 264 265 263 261 260 264 265 261 255 250 249 252 256 257 259 261 258 254 252 248 244 245 254 263 266 264 260 257 257 260 262 265 269 274 280 283 285 287 289 291 291 290 291 295 300 304 306 308 310 311 311 311 311 311 311 312 313 316 318 320 323 324 323 323 324 322 321 321 322 324 327 326 324
210 239 243 218 208 206 202 207 217 223 230 242 255 264 267 268 267 265 264 265 263 260 258 256 255 258 259 258 259 260 256 254 251 245 243 250 263 270 270 265 260 258 259 261 263 266 270 275 280 281 283 286 288 289 288 289 293 298 303 305 307 308 311 312 311 311 311 312 312 313 315 317 319 321 324 325 323 323 325 325 324 326 328 327 326 322 318
231 264 256 237 226 233 233 233 237 241 248 257 263 267 268 268 267 266 266 267 266 265 265 265 262 261 262 261 260 258 255 254 250 243 244 255 268 271 270 266 262 262 262 263 264 267 271 275 278 280 282 285 286 285 286 289 295 301 304 305 307 309 311 311 311 311 311 311 312 314 315 317 319 321 325 327 326 325 327 329 329 329 326 321 317 316 313
234 240 234 223 214 246 248 248 253 258 261 264 265 266 267 266 266 266 266 266 268 269 268 268 267 265 265 264 260 256 255 254 249 243 247 259 269 270 269 266 264 263 263 263 265 268 271 274 276 279 282 284 283 283 285 291 297 302 304 306 307 310 311 311 310 310 310 311 313 315 316 318 319 320 323 328 329 327 327 329 331 332 328 321 317 314 310
237 241 239 229 218 230 249 256 263 267 269 269 267 265 266 267 268 269 267 266 268 268 267 268 268 267 267 264 258 255 256 254 249 246 252 263 270 271 270 267 264 263 264 265 266 268 271 273 276 279 282 281 280 282 287 293 299 302 304 306 308 309 310 309 309 309 310 311 314 316 317 319 320 320 322 324 328 329 328 328 330 334 335 332 329 324 317
241 248 249 241 228 234 251 259 265 270 273 272 268 267 270 271 271 270 268 266 268 269 268 267 267 267 267 264 260 259 258 254 250 250 256 265 270 272 270 267 264 264 265 266 268 270 272 275 278 281 281 280 280 283 289 295 300 302 304 305 307 309 309 307 307 309 309 311 314 316 317 318 320 322 323 325 327 329 327 328 333 337 339 338 335 332 329
242 248 253 250 240 246 258 263 267 270 271 270 268 269 270 271 270 269 268 268 269 269 268 267 265 267 268 267 263 261 258 253 252 253 258 265 269 270 269 266 264 265 266 267 270 271 273 276 279 279 279 279 281 285 292 297 300 302 303 305 306 307 306 305 306 307 308 311 314 316 317 319 321 324 326 328 330 332 331 334 339 342 341 340 339 336 335
244 250 254 256 254 257 260 260 261 265 267 266 266 267 269 269 270 271 271 270 269 266 265 265 265 267 270 268 264 258 253 251 251 254 259 265 268 269 268 265 263 264 266 267 269 271 273 276 278 277 278 280 282 287 293 297 299 300 302 303 304 304 303 303 304 306 309 312 314 315 316 319 322 324 328 331 334 335 335 338 344 348 348 345 343 340 338
248 249 249 250 253 256 254 252 255 262 266 265 264 267 271 271 271 272 270 268 266 264 263 264 265 265 267 266 261 255 250 249 251 256 261 267 269 267 264 263 263 265 267 268 269 271 273 276 276 276 278 280 283 289 294 296 298 299 300 301 301 300 299 300 301 304 308 311 313 314 315 318 322 326 330 333 335 336 336 337 341 345 348 349 349 345 341
253 250 244 237 242 252 256 257 258 262 266 266 266 269 271 270 268 267 266 265 266 266 266 266 266 265 264 261 256 251 249 249 253 259 266 269 268 265 263 263 264 265 266 267 269 271 272 273 273 275 279 281 284 290 294 295 297 298 298 299 299 297 297 298 299 303 307 310 312 313 315 319 324 327 331 334 336 337 338 340 341 342 345 347 348 348 348
256 254 248 242 246 254 260 261 261 262 264 266 267 267 267 266 265 266 267 268 268 268 268 267 266 264 261 258 253 250 250 252 258 265 269 268 266 264 265 265 265 265 266 267 268 269 270 271 273 276 279 282 286 291 294 294 295 296 297 298 297 296 296 297 299 302 306 309 311 313 316 320 325 328 332 335 337 338 341 343 344 344 346 349 351 353 355
257 255 252 250 252 254 255 255 258 260 262 264 266 266 266 266 266 267 269 270 269 269 269 268 266 262 259 257 254 252 253 257 263 267 267 265 265 266 266 265 265 266 266 267 268 269 270 272 274 278 281 284 288 291 293 293 293 294 295 296 295 295 295 297 299 303 307 309 311 313 316 321 325 329 333 337 339 342 344 346 347 348 351 355 358 358 357
259 256 255 256 255 252 251 252 256 259 260 262 263 263 263 263 263 265 268 269 269 270 270 267 264 261 258 256 253 253 255 259 263 264 264 264 265 265 265 266 266 267 267 268 269 270 272 273 276 280 282 285 288 290 291 291 291 292 293 293 292 292 293 295 300 304 307 309 310 312 317 322 325 329 334 338 341 344 347 349 350 352 355 360 3 3 1
261 259 257 255 252 250 250 251 252 254 257 258 259 261 263 262 262 264 267 268 268 269 267 265 264 261 257 253 251 252 255 258 260 262 262 264 265 265 265 266 267 267 269 270 270 271 273 275 278 281 283 286 288 289 288 288 289 289 290 290 289 288 290 293 298 302 304 307 310 314 319 324 326 329 334 338 343 346 348 350 352 354 357 2 5 6 7
251 248 249 249 244 241 244 248 249 251 255 258 260 264 266 266 265 266 266 265 264 264 263 262 261 258 253 250 250 253 256 258 259 261 262 262 263 264 264 265 266 268 270 272 273 274 276 277 279 281 283 285 287 286 286 287 287 288 289 288 286 287 289 292 296 299 302 305 310 315 320 324 325 328 332 337 341 344 348 351 353 354 357 2 6 8 10
248 247 251 254 252 248 250 254 255 255 258 261 264 266 267 266 265 265 263 261 260 259 258 257 256 253 251 251 253 256 258 259 260 261 262 261 261 262 263 264 267 269 271 273 275 277 278 279 281 283 285 286 286 285 284 286 286 286 287 286 285 286 288 291 294 297 299 303 308 314 319 322 323 324 329 334 337 340 345 351 353 353 356 1 6 9 11
256 255 258 260 260 259 259 260 260 260 261 262 264 265 265 265 263 262 260 258 256 255 253 252 251 251 252 254 256 258 259 260 260 260 261 261 261 262 263 265 267 269 271 274 277 278 279 279 282 286 287 286 286 285 284 283 283 284 284 283 284 285 287 289 291 295 298 302 308 312 316 319 321 322 325 330 332 335 342 347 350 352 356 0 6 10 12
259 258 259 261 262 261 259 259 260 260 260 261 262 262 261 260 258 258 257 255 254 252 251 250 250 251 253 255 257 259 260 260 261 260 260 260 260 261 263 265 268 270 272 275 277 278 279 281 284 286 286 286 285 284 282 280 279 279 280 280 281 283 285 287 289 293 297 302 306 309 312 315 318 320 323 326 328 332 338 343 346 351 356 1 5 8 10
259 259 260 262 261 260 258 258 258 258 256 256 256 255 255 255 254 253 252 251 250 250 250 250 251 253 254 255 257 258 259 260 260 259 258 258 260 262 264 266 270 273 276 279 279 277 278 282 284 284 284 284 282 279 276 275 274 274 276 277 278 280 282 284 286 290 295 300 303 306 308 310 313 317 320 322 326 332 336 340 344 350 355 0 5 7 9
259 259 259 258 257 256 256 255 254 253 251 251 251 251 251 251 250 248 248 248 248 248 250 251 252 254 255 256 257 257 257 258 257 258 260 262 264 265 267 270 274 278 281 282 280 278 278 280 280 279 280 278 275 271 270 269 269 270 272 273 274 277 279 281 282 287 294 299 302 304 304 306 310 315 318 321 327 332 335 338 343 348 353 358 3 7 9
257 258 258 255 253 251 250 249 247 246 246 247 248 248 247 246 245 243 244 244 245 248 250 251 253 254 254 255 255 255 256 258 260 263 266 268 270 272 274 276 280 283 283 281 279 279 279 278 276 275 274 270 265 264 263 264 265 267 268 269 271 274 276 278 280 286 293 298 303 305 305 305 309 314 317 322 328 332 333 336 340 345 350 355 0 4 8
255 255 253 251 248 245 244 242 242 242 242 242 242 243 242 241 240 239 240 241 244 246 247 248 250 252 253 255 257 258 260 264 267 270 272 273 275 277 278 280 283 284 281 279 279 279 278 276 273 270 265 260 258 257 257 259 261 263 264 266 268 270 271 274 278 284 291 297 301 303 305 306 310 314 317 322 326 330 331 333 338 342 346 351 357 1 4
250 248 246 243 240 238 237 236 237 237 236 236 236 234 232 230 230 232 235 237 240 243 246 248 252 255 258 261 263 265 267 271 274 275 276 278 280 280 280 282 284 281 277 276 277 277 275 272 267 262 256 252 251 251 251 254 258 260 261 263 264 265 267 270 274 280 287 293 297 300 304 307 310 314 318 321 323 326 329 331 335 338 341 346 351 354 357
243 241 238 235 233 232 231 232 233 233 231 230 227 223 222 223 224 227 230 233 236 241 247 253 258 263 268 271 274 277 278 279 280 280 281 283 284 284 284 286 287 282 276 274 273 271 268 264 258 252 248 245 245 246 248 252 255 257 258 260 261 262 263 266 269 276 283 288 292 297 302 306 309 314 318 320 321 322 324 326 329 332 336 340 344 347 349
238 235 232 229 229 228 228 228 228 226 223 220 215 213 215 217 219 223 227 231 237 245 254 263 270 275 278 282 285 287 288 287 287 288 288 288 288 289 290 291 290 285 279 274 271 267 262 255 248 245 242 241 242 245 248 250 253 255 256 257 258 260 261 263 267 273 279 283 287 292 296 301 306 310 314 317 317 318 320 322 324 327 331 334 337 340 342
229 226 225 224 223 222 221 220 217 213 210 206 204 204 207 208 211 218 226 236 249 258 267 276 282 285 287 291 293 294 295 296 297 296 295 294 295 295 293 291 289 285 278 271 267 262 254 246 242 241 241 241 244 246 248 249 251 253 254 255 256 257 259 263 268 273 277 280 284 287 290 295 300 304 308 310 310 312 315 318 319 322 325 327 329 331 334
220 216 215 214 212 209 207 204 200 197 196 194 193 194 196 199 208 220 233 250 264 272 280 286 288 290 293 295 296 299 303 305 306 304 302 303 306 306 298 289 285 281 272 262 254 247 241 240 241 243 244 244 245 246 247 248 249 250 251 253 255 256 258 264 269 273 277 281 283 287 290 294 297 301 304 305 305 306 309 312 315 318 320 321 322 325 327
209 204 200 200 198 196 194 192 190 188 187 187 188 191 196 204 218 235 250 264 274 281 286 289 290 292 295 297 300 305 313 318 315 312 312 314 316 316 307 292 284 278 267 255 246 241 240 243 245 246 245 245 245 245 245 245 248 249 250 251 254 256 261 266 270 273 278 282 285 288 292 295 298 300 302 302 302 303 304 306 309 312 314 315 317 319 321
198 195 191 189 189 188 186 185 182 180 182 187 192 196 204 216 232 248 261 273 280 285 288 291 292 294 297 302 305 311 320 328 322 318 321 325 325 322 316 303 290 279 268 258 251 249 249 249 248 248 247 245 244 245 246 246 247 249 251 253 255 260 265 270 272 275 279 282 286 289 291 293 297 299 300 300 301 302 302 302 304 305 306 307 310 312 314
186 187 183 180 179 179 179 179 179 179 180 185 194 206 218 235 250 259 267 275 280 284 289 295 297 296 298 301 304 308 316 324 324 324 329 332 329 326 323 315 302 288 276 268 262 260 258 257 254 252 251 248 247 249 250 249 249 253 256 257 260 263 268 271 273 275 278 281 285 289 290 292 294 296 296 296 298 298 299 301 303 303 303 304 306 307 308
176 177 175 172 171 171 172 174 176 179 180 183 195 213 226 239 257 269 273 278 285 292 296 297 295 293 293 295 298 303 309 315 319 323 327 329 330 327 321 312 304 296 289 283 278 273 269 266 263 259 257 255 255 255 255 255 256 258 260 261 262 265 268 271 274 275 277 280 284 287 289 291 292 292 293 294 295 295 297 299 301 302 303 304 305 306 307
165 163 165 165 163 164 169 173 177 183 188 192 201 217 229 237 253 271 281 287 296 300 295 288 285 284 286 292 297 302 305 308 312 315 317 320 324 322 313 304 300 297 294 291 285 279 274 272 270 269 268 266 264 263 263 262 261 261 261 262 263 266 270 274 275 277 279 283 286 287 289 291 291 291 291 291 292 294 296 298 299 300 301 303 304 305 306
157 156 159 161 162 164 171 177 180 183 190 195 202 217 232 240 252 268 277 283 289 289 287 286 286 285 284 290 297 302 304 306 308 308 310 314 317 316 312 307 302 298 294 291 287 282 279 278 277 276 274 273 271 269 267 265 263 262 263 264 268 272 276 277 278 279 283 286 288 290 291 291 291 291 291 292 293 295 296 298 299 300 301 302 303 304 305
154 155 157 162 168 172 176 181 184 186 190 195 199 208 221 233 247 260 262 261 265 271 276 283 289 292 293 294 298 301 305 307 306 304 306 311 313 310 306 302 298 293 290 287 285 283 282 281 279 277 275 273 271 269 266 265 265 266 268 272 275 277 277 277 278 281 285 288 290 291 292 292 292 292 293 294 296 298 299 300 301 303 304 305 306 307 307